| time (UTC) | temp F | wind direction | speed MPH | gust MPH | rain 1hr in | rain 24hr in | rain mn in | humidity % | barometer mb |
| 20260904120716 | 73 | 149 | 0.0 | 2.0 | 0.00 | 0.00 | 0.00 | 47 | 1008.7 |
| 20260904120210 | 73 | 162 | 0.0 | 2.0 | 0.00 | 0.00 | 0.00 | 48 | 1008.7 |
| 20260904115703 | 73 | 182 | 0.0 | 1.0 | 0.00 | 0.00 | 0.00 | 48 | 1008.7 |
| 20260904115202 | 73 | 244 | 0.0 | 3.0 | 0.00 | 0.00 | 0.00 | 48 | 1008.8 |
| 20260904114702 | 73 | 121 | 1.0 | 3.0 | 0.00 | 0.00 | 0.00 | 48 | 1008.8 |
| 20260904114201 | 73 | 201 | 0.0 | 2.0 | 0.00 | 0.00 | 0.00 | 49 | 1008.7 |
| 20260904113702 | 73 | 176 | 0.0 | 1.0 | 0.00 | 0.00 | 0.00 | 48 | 1008.7 |
| 20260904113202 | 73 | 166 | 0.0 | 1.0 | 0.00 | 0.00 | 0.00 | 48 | 1008.6 |
| 20260904112702 | 73 | 155 | 0.0 | 1.0 | 0.00 | 0.00 | 0.00 | 48 | 1008.7 |
| 20260904112203 | 73 | 155 | 0.0 | 2.0 | 0.00 | 0.00 | 0.00 | 49 | 1008.7 |
| 20260904111926 | 73 | 219 | 0.0 | 2.0 | 0.00 | 0.00 | 0.00 | 50 | 1008.8 |
| 20260904111428 | 73 | 238 | 0.0 | 2.0 | 0.00 | 0.00 | 0.00 | 51 | 1008.8 |
| 20260904110926 | 73 | 162 | 0.0 | 2.0 | 0.00 | 0.00 | 0.00 | 51 | 1008.7 |
| 20260904110426 | 73 | 221 | 0.0 | 2.0 | 0.00 | 0.00 | 0.00 | 51 | 1008.6 |
| 20260904105701 | 73 | 199 | 0.0 | 2.0 | 0.00 | 0.00 | 0.00 | 50 | 1008.5 |
| 20260904105201 | 73 | 227 | 0.0 | 2.0 | 0.00 | 0.00 | 0.00 | 50 | 1008.5 |
| 20260904104701 | 73 | 187 | 0.0 | 1.0 | 0.00 | 0.00 | 0.00 | 50 | 1008.6 |
| 20260904104202 | 73 | 157 | 0.0 | 0.0 | 0.00 | 0.00 | 0.00 | 50 | 1008.4 |
| 20260904103702 | 73 | 157 | 0.0 | 0.0 | 0.00 | 0.00 | 0.00 | 50 | 1008.4 |
| 20260904103201 | 73 | 160 | 0.0 | 0.0 | 0.00 | 0.00 | 0.00 | 50 | 1008.4 |
| 20260904102701 | 73 | 158 | 0.0 | 0.0 | 0.00 | 0.00 | 0.00 | 50 | 1008.4 |
| 20260904102201 | 73 | 158 | 0.0 | 0.0 | 0.00 | 0.00 | 0.00 | 49 | 1008.3 |
| 20260904101701 | 73 | 158 | 0.0 | 0.0 | 0.00 | 0.00 | 0.00 | 50 | 1008.2 |
| 20260904101204 | 73 | 158 | 0.0 | 0.0 | 0.00 | 0.00 | 0.00 | 49 | 1008.1 |
| 20260904100702 | 74 | 158 | 0.0 | 0.0 | 0.00 | 0.00 | 0.00 | 49 | 1008.2 |
| 20260904100203 | 74 | 154 | 0.0 | 1.0 | 0.00 | 0.00 | 0.00 | 49 | 1008.1 |
| 20260904095702 | 74 | 154 | 0.0 | 1.0 | 0.00 | 0.00 | 0.00 | 49 | 1008.1 |
| 20260904095204 | 74 | 176 | 0.0 | 1.0 | 0.00 | 0.00 | 0.00 | 49 | 1008.2 |
| 20260904094927 | 74 | 176 | 0.0 | 1.0 | 0.00 | 0.00 | 0.00 | 49 | 1008.2 |
| 20260904094427 | 74 | 179 | 0.0 | 0.0 | 0.00 | 0.00 | 0.00 | 49 | 1008.1 |
| 20260904093701 | 74 | 178 | 0.0 | 2.0 | 0.00 | 0.00 | 0.00 | 49 | 1008.1 |
| 20260904093201 | 74 | 178 | 0.0 | 2.0 | 0.00 | 0.00 | 0.00 | 49 | 1008.2 |
| 20260904092700 | 74 | 160 | 0.0 | 0.0 | 0.00 | 0.00 | 0.00 | 48 | 1008.3 |
| 20260904092424 | 75 | 160 | 0.0 | 0.0 | 0.00 | 0.00 | 0.00 | 47 | 1008.1 |
| 20260904091700 | 75 | 160 | 0.0 | 2.0 | 0.00 | 0.00 | 0.00 | 47 | 1008.1 |
| 20260904091201 | 75 | 173 | 1.0 | 2.0 | 0.00 | 0.00 | 0.00 | 46 | 1008.2 |
| 20260904090701 | 75 | 172 | 0.0 | 1.0 | 0.00 | 0.00 | 0.00 | 46 | 1008.2 |
| 20260904090157 | 75 | 147 | 0.0 | 1.0 | 0.00 | 0.00 | 0.00 | 46 | 1008.2 |
| 20260904085651 | 76 | 150 | 0.0 | 2.0 | 0.00 | 0.00 | 0.00 | 45 | 1008.2 |
| 20260904085146 | 76 | 164 | 0.0 | 2.0 | 0.00 | 0.00 | 0.00 | 45 | 1008.3 |
| 20260904084640 | 76 | 226 | 0.0 | 2.0 | 0.00 | 0.00 | 0.00 | 45 | 1008.3 |
| 20260904084134 | 76 | 208 | 0.0 | 2.0 | 0.00 | 0.00 | 0.00 | 45 | 1008.5 |
| 20260904083635 | 76 | 175 | 0.0 | 1.0 | 0.00 | 0.00 | 0.00 | 45 | 1008.5 |
| 20260904083132 | 76 | 200 | 0.0 | 1.0 | 0.00 | 0.00 | 0.00 | 45 | 1008.6 |
| 20260904082632 | 76 | 121 | 0.0 | 2.0 | 0.00 | 0.00 | 0.00 | 45 | 1008.6 |
| 20260904082132 | 76 | 163 | 1.0 | 2.0 | 0.00 | 0.00 | 0.00 | 45 | 1008.6 |
| 20260904081633 | 76 | 172 | 1.0 | 3.0 | 0.00 | 0.00 | 0.00 | 45 | 1008.7 |
| 20260904081402 | 76 | 177 | 1.0 | 3.0 | 0.00 | 0.00 | 0.00 | 45 | 1008.7 |
| 20260904080632 | 76 | 182 | 1.0 | 3.0 | 0.00 | 0.00 | 0.00 | 45 | 1008.8 |
| 20260904080134 | 76 | 145 | 1.0 | 3.0 | 0.00 | 0.00 | 0.00 | 46 | 1008.8 |
| 20260904075634 | 76 | 203 | 1.0 | 4.0 | 0.00 | 0.00 | 0.00 | 46 | 1008.6 |
| 20260904075135 | 76 | 205 | 1.0 | 4.0 | 0.00 | 0.00 | 0.00 | 47 | 1008.8 |
| 20260904074636 | 77 | 143 | 0.0 | 3.0 | 0.00 | 0.00 | 0.00 | 47 | 1008.7 |
| 20260904074133 | 77 | 160 | 0.0 | 1.0 | 0.00 | 0.00 | 0.00 | 47 | 1008.8 |
| 20260904073133 | 77 | 172 | 0.0 | 2.0 | 0.00 | 0.00 | 0.00 | 47 | 1008.8 |
| 20260904072630 | 77 | 167 | 0.0 | 1.0 | 0.00 | 0.00 | 0.00 | 47 | 1008.7 |
| 20260904071351 | 77 | 161 | 1.0 | 2.0 | 0.00 | 0.00 | 0.00 | 46 | 1008.5 |
| 20260904070846 | 78 | 203 | 1.0 | 2.0 | 0.00 | 0.00 | 0.00 | 45 | 1008.4 |
| 20260904070122 | 78 | 188 | 0.0 | 2.0 | 0.00 | 0.00 | 0.00 | 45 | 1008.3 |
| 20260904065621 | 78 | 140 | 0.0 | 0.0 | 0.00 | 0.00 | 0.00 | 45 | 1008.3 |
| 20260904065153 | 78 | 129 | 0.0 | 1.0 | 0.00 | 0.00 | 0.00 | 44 | 1008.5 |
| 20260904065131 | 78 | 129 | 0.0 | 2.0 | 0.00 | 0.00 | 0.00 | 44 | 1008.2 |
| 20260904064115 | 78 | 151 | 1.0 | 2.0 | 0.00 | 0.00 | 0.00 | 43 | 1008.2 |
| 20260904063617 | 79 | 162 | 0.0 | 2.0 | 0.00 | 0.00 | 0.00 | 43 | 1008.2 |
| 20260904063116 | 79 | 128 | 0.0 | 1.0 | 0.00 | 0.00 | 0.00 | 43 | 1008.2 |
| 20260904062614 | 79 | 139 | 0.0 | 2.0 | 0.00 | 0.00 | 0.00 | 43 | 1008.2 |
| 20260904062337 | 79 | 143 | 1.0 | 3.0 | 0.00 | 0.00 | 0.00 | 43 | 1008.2 |
| 20260904061614 | 79 | 172 | 1.0 | 3.0 | 0.00 | 0.00 | 0.00 | 42 | 1008.2 |
| 20260904061115 | 80 | 129 | 0.0 | 1.0 | 0.00 | 0.00 | 0.00 | 40 | 1008.2 |
| 20260904060614 | 80 | 34 | 0.0 | 1.0 | 0.00 | 0.00 | 0.00 | 40 | 1008.1 |
| 20260904060115 | 80 | 30 | 0.0 | 1.0 | 0.00 | 0.00 | 0.00 | 40 | 1008.1 |
| 20260904055612 | 80 | 30 | 0.0 | 1.0 | 0.00 | 0.00 | 0.00 | 40 | 1008.1 |
| 20260904055336 | 80 | 30 | 0.0 | 1.0 | 0.00 | 0.00 | 0.00 | 39 | 1008.1 |
| 20260904054610 | 80 | 50 | 0.0 | 1.0 | 0.00 | 0.00 | 0.00 | 39 | 1008.1 |
| 20260904054108 | 81 | 50 | 0.0 | 1.0 | 0.00 | 0.00 | 0.00 | 39 | 1008.1 |
| 20260904053607 | 81 | 86 | 0.0 | 1.0 | 0.00 | 0.00 | 0.00 | 39 | 1008.0 |
| 20260904053102 | 81 | 122 | 0.0 | 1.0 | 0.00 | 0.00 | 0.00 | 39 | 1008.1 |
| 20260904052603 | 81 | 122 | 0.0 | 3.0 | 0.00 | 0.00 | 0.00 | 39 | 1008.2 |
| 20260904052101 | 82 | 144 | 0.0 | 3.0 | 0.00 | 0.00 | 0.00 | 40 | 1008.2 |
| 20260904051602 | 82 | 134 | 0.0 | 1.0 | 0.00 | 0.00 | 0.00 | 40 | 1008.3 |
| 20260904051331 | 82 | 135 | 0.0 | 3.0 | 0.00 | 0.00 | 0.00 | 39 | 1008.3 |
| 20260904050829 | 82 | 119 | 0.0 | 3.0 | 0.00 | 0.00 | 0.00 | 39 | 1008.1 |
| 20260904045828 | 83 | 150 | 0.0 | 1.0 | 0.00 | 0.00 | 0.00 | 37 | 1008.2 |
| 20260904045102 | 83 | 91 | 0.0 | 1.0 | 0.00 | 0.00 | 0.00 | 37 | 1008.2 |
| 20260904044603 | 84 | 174 | 0.0 | 1.0 | 0.00 | 0.00 | 0.00 | 37 | 1008.2 |
| 20260904044103 | 84 | 92 | 0.0 | 1.0 | 0.00 | 0.00 | 0.00 | 37 | 1008.2 |
| 20260904043601 | 84 | 107 | 0.0 | 2.0 | 0.00 | 0.00 | 0.00 | 37 | 1008.2 |
| 20260904043101 | 84 | 110 | 0.0 | 2.0 | 0.00 | 0.00 | 0.00 | 37 | 1008.2 |
| 20260904042602 | 84 | 63 | 0.0 | 2.0 | 0.00 | 0.00 | 0.00 | 37 | 1008.2 |
| 20260904042101 | 85 | 75 | 0.0 | 1.0 | 0.00 | 0.00 | 0.00 | 37 | 1008.2 |
| 20260904040558 | 85 | 33 | 0.0 | 1.0 | 0.00 | 0.00 | 0.00 | 37 | 1008.0 |
| 20260904040056 | 85 | 13 | 0.0 | 2.0 | 0.00 | 0.00 | 0.00 | 37 | 1008.0 |
| 20260904035556 | 86 | 315 | 0.0 | 2.0 | 0.00 | 0.00 | 0.00 | 36 | 1008.0 |
| 20260904035053 | 86 | 31 | 1.0 | 4.0 | 0.00 | 0.00 | 0.00 | 36 | 1007.8 |
| 20260904034553 | 87 | 71 | 1.0 | 4.0 | 0.00 | 0.00 | 0.00 | 36 | 1007.7 |
| 20260904034052 | 87 | 69 | 1.0 | 5.0 | 0.00 | 0.00 | 0.00 | 35 | 1007.7 |
| 20260904033552 | 87 | 26 | 1.0 | 6.0 | 0.00 | 0.00 | 0.00 | 35 | 1007.6 |
| 20260904033053 | 88 | 45 | 1.0 | 6.0 | 0.00 | 0.00 | 0.00 | 35 | 1007.5 |
| 20260904032550 | 88 | 351 | 1.0 | 5.0 | 0.00 | 0.00 | 0.00 | 34 | 1007.5 |
| 20260904032052 | 89 | 51 | 1.0 | 5.0 | 0.00 | 0.00 | 0.00 | 33 | 1007.4 |
| 20260904031552 | 89 | 91 | 1.0 | 5.0 | 0.00 | 0.00 | 0.00 | 32 | 1007.3 |
| 20260904031052 | 89 | 75 | 1.0 | 5.0 | 0.00 | 0.00 | 0.00 | 32 | 1007.2 |
| 20260904030548 | 89 | 124 | 0.0 | 4.0 | 0.00 | 0.00 | 0.00 | 31 | 1007.2 |
| 20260904030314 | 89 | 159 | 0.0 | 2.0 | 0.00 | 0.00 | 0.00 | 30 | 1007.1 |
| 20260904025548 | 89 | 120 | 0.0 | 3.0 | 0.00 | 0.00 | 0.00 | 31 | 1006.9 |
| 20260904025046 | 90 | 6 | 1.0 | 5.0 | 0.00 | 0.00 | 0.00 | 30 | 1006.8 |
| 20260904024813 | 90 | 311 | 1.0 | 5.0 | 0.00 | 0.00 | 0.00 | 30 | 1006.7 |
| 20260904024046 | 90 | 43 | 1.0 | 4.0 | 0.00 | 0.00 | 0.00 | 29 | 1006.7 |
| 20260904023545 | 91 | 340 | 1.0 | 5.0 | 0.00 | 0.00 | 0.00 | 28 | 1006.6 |
| 20260904023046 | 91 | 319 | 1.0 | 5.0 | 0.00 | 0.00 | 0.00 | 28 | 1006.4 |
| 20260904022545 | 91 | 16 | 1.0 | 4.0 | 0.00 | 0.00 | 0.00 | 27 | 1006.5 |
| 20260904022309 | 91 | 13 | 2.0 | 6.0 | 0.00 | 0.00 | 0.00 | 27 | 1006.4 |
| 20260904021540 | 92 | 357 | 1.0 | 6.0 | 0.00 | 0.00 | 0.00 | 26 | 1006.5 |
| 20260904021040 | 92 | 335 | 2.0 | 7.0 | 0.00 | 0.00 | 0.00 | 26 | 1006.6 |
| 20260904020540 | 93 | 46 | 2.0 | 7.0 | 0.00 | 0.00 | 0.00 | 24 | 1006.7 |
| 20260904020041 | 93 | 338 | 1.0 | 6.0 | 0.00 | 0.00 | 0.00 | 23 | 1006.8 |
| 20260904015541 | 94 | 339 | 1.0 | 4.0 | 0.00 | 0.00 | 0.00 | 22 | 1006.7 |
| 20260904015040 | 94 | 20 | 1.0 | 4.0 | 0.00 | 0.00 | 0.00 | 22 | 1006.7 |
| 20260904014540 | 95 | 18 | 1.0 | 4.0 | 0.00 | 0.00 | 0.00 | 21 | 1006.7 |
| 20260904014041 | 96 | 28 | 1.0 | 4.0 | 0.00 | 0.00 | 0.00 | 19 | 1006.8 |
| 20260904013539 | 96 | 84 | 0.0 | 3.0 | 0.00 | 0.00 | 0.00 | 16 | 1006.8 |
| 20260904013303 | 97 | 110 | 1.0 | 3.0 | 0.00 | 0.00 | 0.00 | 15 | 1006.6 |
| 20260904012540 | 97 | 86 | 0.0 | 2.0 | 0.00 | 0.00 | 0.00 | 16 | 1006.6 |
| 20260904012306 | 98 | 56 | 0.0 | 4.0 | 0.00 | 0.00 | 0.00 | 16 | 1006.6 |
| 20260904011540 | 98 | 64 | 1.0 | 4.0 | 0.00 | 0.00 | 0.00 | 15 | 1006.7 |
| 20260904011040 | 98 | 64 | 1.0 | 3.0 | 0.00 | 0.00 | 0.00 | 15 | 1006.8 |
| 20260904010539 | 98 | 97 | 1.0 | 5.0 | 0.00 | 0.00 | 0.00 | 15 | 1006.8 |
| 20260904010317 | 99 | 74 | 1.0 | 6.0 | 0.00 | 0.00 | 0.00 | 15 | 1006.8 |
| 20260904005540 | 99 | 94 | 2.0 | 6.0 | 0.00 | 0.00 | 0.00 | 14 | 1006.6 |
| 20260904005301 | 99 | 102 | 1.0 | 4.0 | 0.00 | 0.00 | 0.00 | 14 | 1006.6 |
| 20260904004536 | 99 | 112 | 1.0 | 3.0 | 0.00 | 0.00 | 0.00 | 14 | 1006.7 |
| 20260904004035 | 99 | 105 | 1.0 | 5.0 | 0.00 | 0.00 | 0.00 | 14 | 1006.7 |
| 20260904003539 | 99 | 177 | 0.0 | 5.0 | 0.00 | 0.00 | 0.00 | 14 | 1006.7 |
| 20260904003036 | 99 | 26 | 1.0 | 3.0 | 0.00 | 0.00 | 0.00 | 14 | 1006.6 |
| 20260904002535 | 99 | 25 | 1.0 | 6.0 | 0.00 | 0.00 | 0.00 | 14 | 1006.6 |
| 20260904002036 | 100 | 82 | 1.0 | 6.0 | 0.00 | 0.00 | 0.00 | 14 | 1006.6 |
| 20260904001536 | 99 | 4 | 1.0 | 4.0 | 0.00 | 0.00 | 0.00 | 14 | 1006.7 |
| 20260904001036 | 100 | 51 | 1.0 | 4.0 | 0.00 | 0.00 | 0.00 | 15 | 1006.8 |
| 20260904000532 | 100 | 175 | 1.0 | 4.0 | 0.00 | 0.00 | 0.00 | 14 | 1006.8 |
| 20260904000031 | 99 | 252 | 1.0 | 5.0 | 0.00 | 0.00 | 0.00 | 13 | 1006.8 |
| 20260903235532 | 99 | 79 | 1.0 | 5.0 | 0.00 | 0.00 | 0.00 | 14 | 1006.9 |
| 20260903235032 | 100 | 112 | 1.0 | 3.0 | 0.00 | 0.00 | 0.00 | 13 | 1006.9 |
| 20260903234532 | 99 | 108 | 1.0 | 4.0 | 0.00 | 0.00 | 0.00 | 13 | 1007.1 |
| 20260903234031 | 99 | 37 | 2.0 | 7.0 | 0.00 | 0.00 | 0.00 | 15 | 1007.1 |
| 20260903233530 | 99 | 72 | 2.0 | 7.0 | 0.00 | 0.00 | 0.00 | 14 | 1007.1 |
| 20260903233029 | 100 | 106 | 2.0 | 6.0 | 0.00 | 0.00 | 0.00 | 14 | 1007.1 |
| 20260903232529 | 100 | 127 | 1.0 | 6.0 | 0.00 | 0.00 | 0.00 | 14 | 1007.3 |
| 20260903232029 | 100 | 214 | 2.0 | 5.0 | 0.00 | 0.00 | 0.00 | 13 | 1007.3 |
| 20260903231530 | 100 | 82 | 2.0 | 5.0 | 0.00 | 0.00 | 0.00 | 13 | 1007.4 |
| 20260903231030 | 100 | 90 | 1.0 | 5.0 | 0.00 | 0.00 | 0.00 | 13 | 1007.4 |
| 20260903230529 | 100 | 173 | 1.0 | 5.0 | 0.00 | 0.00 | 0.00 | 13 | 1007.4 |
| 20260903230029 | 99 | 158 | 2.0 | 5.0 | 0.00 | 0.00 | 0.00 | 13 | 1007.6 |
| 20260903225531 | 99 | 96 | 1.0 | 5.0 | 0.00 | 0.00 | 0.00 | 13 | 1007.6 |
| 20260903225029 | 100 | 61 | 2.0 | 5.0 | 0.00 | 0.00 | 0.00 | 13 | 1007.7 |
| 20260903224529 | 99 | 95 | 2.0 | 6.0 | 0.00 | 0.00 | 0.00 | 13 | 1007.9 |
| 20260903224029 | 100 | 46 | 1.0 | 6.0 | 0.00 | 0.00 | 0.00 | 13 | 1007.9 |
| 20260903223529 | 99 | 238 | 2.0 | 6.0 | 0.00 | 0.00 | 0.00 | 13 | 1008.0 |
| 20260903223030 | 99 | 79 | 2.0 | 6.0 | 0.00 | 0.00 | 0.00 | 13 | 1008.0 |
| 20260903222530 | 98 | 59 | 2.0 | 5.0 | 0.00 | 0.00 | 0.00 | 13 | 1008.0 |
| 20260903222031 | 98 | 51 | 2.0 | 5.0 | 0.00 | 0.00 | 0.00 | 14 | 1008.1 |
| 20260903221530 | 99 | 0 | 2.0 | 8.0 | 0.00 | 0.00 | 0.00 | 14 | 1008.1 |
| 20260903221029 | 99 | 119 | 1.0 | 8.0 | 0.00 | 0.00 | 0.00 | 13 | 1008.1 |
| 20260903220529 | 98 | 69 | 1.0 | 4.0 | 0.00 | 0.00 | 0.00 | 14 | 1008.3 |
| 20260903220257 | 98 | 216 | 1.0 | 4.0 | 0.00 | 0.00 | 0.00 | 13 | 1008.2 |
| 20260903215530 | 99 | 37 | 0.0 | 3.0 | 0.00 | 0.00 | 0.00 | 13 | 1008.4 |
| 20260903215029 | 98 | 176 | 1.0 | 5.0 | 0.00 | 0.00 | 0.00 | 14 | 1008.4 |
| 20260903214530 | 98 | 99 | 1.0 | 5.0 | 0.00 | 0.00 | 0.00 | 14 | 1008.4 |
| 20260903214030 | 98 | 127 | 1.0 | 4.0 | 0.00 | 0.00 | 0.00 | 14 | 1008.6 |
| 20260903213529 | 98 | 4 | 2.0 | 3.0 | 0.00 | 0.00 | 0.00 | 13 | 1008.7 |
| 20260903213029 | 98 | 16 | 2.0 | 7.0 | 0.00 | 0.00 | 0.00 | 14 | 1008.8 |
| 20260903212530 | 97 | 65 | 2.0 | 7.0 | 0.00 | 0.00 | 0.00 | 13 | 1008.8 |
| 20260903212028 | 98 | 19 | 1.0 | 6.0 | 0.00 | 0.00 | 0.00 | 13 | 1008.9 |
| 20260903211530 | 97 | 82 | 1.0 | 6.0 | 0.00 | 0.00 | 0.00 | 13 | 1008.9 |
| 20260903211255 | 97 | 101 | 1.0 | 4.0 | 0.00 | 0.00 | 0.00 | 12 | 1009.0 |
| 20260903210530 | 97 | 123 | 2.0 | 6.0 | 0.00 | 0.00 | 0.00 | 13 | 1009.1 |
| 20260903210030 | 98 | 75 | 1.0 | 6.0 | 0.00 | 0.00 | 0.00 | 12 | 1009.2 |
| 20260903205030 | 97 | 230 | 2.0 | 7.0 | 0.00 | 0.00 | 0.00 | 12 | 1009.1 |
| 20260903204801 | 96 | 195 | 2.0 | 7.0 | 0.00 | 0.00 | 0.00 | 11 | 1009.2 |
| 20260903204030 | 96 | 347 | 1.0 | 4.0 | 0.00 | 0.00 | 0.00 | 11 | 1009.3 |
| 20260903203532 | 96 | 95 | 2.0 | 4.0 | 0.00 | 0.00 | 0.00 | 12 | 1009.3 |
| 20260903203029 | 96 | 76 | 1.0 | 4.0 | 0.00 | 0.00 | 0.00 | 11 | 1009.3 |
| 20260903202528 | 96 | 89 | 1.0 | 4.0 | 0.00 | 0.00 | 0.00 | 11 | 1009.4 |
| 20260903202029 | 95 | 115 | 1.0 | 3.0 | 0.00 | 0.00 | 0.00 | 12 | 1009.6 |
| 20260903201529 | 95 | 73 | 0.0 | 3.0 | 0.00 | 0.00 | 0.00 | 13 | 1009.6 |
| 20260903201030 | 95 | 6 | 1.0 | 5.0 | 0.00 | 0.00 | 0.00 | 14 | 1009.8 |
| 20260903200528 | 96 | 170 | 1.0 | 5.0 | 0.00 | 0.00 | 0.00 | 16 | 1009.7 |
| 20260903200029 | 95 | 60 | 1.0 | 4.0 | 0.00 | 0.00 | 0.00 | 15 | 1009.8 |
| 20260903195528 | 95 | 94 | 2.0 | 4.0 | 0.00 | 0.00 | 0.00 | 16 | 1009.8 |
| 20260903195030 | 95 | 106 | 2.0 | 6.0 | 0.00 | 0.00 | 0.00 | 15 | 1009.8 |
| 20260903194030 | 95 | 66 | 2.0 | 6.0 | 0.00 | 0.00 | 0.00 | 15 | 1010.1 |
| 20260903193530 | 95 | 77 | 1.0 | 5.0 | 0.00 | 0.00 | 0.00 | 15 | 1010.1 |
| 20260903193254 | 94 | 114 | 1.0 | 6.0 | 0.00 | 0.00 | 0.00 | 16 | 1010.3 |
| 20260903192528 | 94 | 142 | 1.0 | 6.0 | 0.00 | 0.00 | 0.00 | 17 | 1010.3 |
| 20260903191530 | 92 | 6 | 1.0 | 4.0 | 0.00 | 0.00 | 0.00 | 17 | 1010.4 |
| 20260903191026 | 93 | 342 | 1.0 | 5.0 | 0.00 | 0.00 | 0.00 | 16 | 1010.4 |
| 20260903190519 | 93 | 61 | 1.0 | 5.0 | 0.00 | 0.00 | 0.00 | 16 | 1010.7 |
| 20260903190013 | 93 | 359 | 1.0 | 4.0 | 0.00 | 0.00 | 0.00 | 17 | 1010.8 |
| 20260903185515 | 93 | 78 | 1.0 | 4.0 | 0.00 | 0.00 | 0.00 | 16 | 1010.9 |
| 20260903185015 | 92 | 105 | 2.0 | 5.0 | 0.00 | 0.00 | 0.00 | 17 | 1011.1 |
| 20260903184516 | 92 | 18 | 2.0 | 5.0 | 0.00 | 0.00 | 0.00 | 18 | 1011.1 |
| 20260903184012 | 92 | 70 | 2.0 | 4.0 | 0.00 | 0.00 | 0.00 | 18 | 1011.2 |
| 20260903183510 | 91 | 56 | 2.0 | 5.0 | 0.00 | 0.00 | 0.00 | 18 | 1011.4 |
| 20260903183011 | 91 | 330 | 1.0 | 5.0 | 0.00 | 0.00 | 0.00 | 16 | 1011.4 |
| 20260903182510 | 92 | 6 | 1.0 | 3.0 | 0.00 | 0.00 | 0.00 | 19 | 1011.4 |
| 20260903182010 | 92 | 27 | 1.0 | 3.0 | 0.00 | 0.00 | 0.00 | 20 | 1011.5 |
| 20260903181512 | 92 | 67 | 0.0 | 3.0 | 0.00 | 0.00 | 0.00 | 18 | 1011.4 |
| 20260903180506 | 91 | 84 | 2.0 | 5.0 | 0.00 | 0.00 | 0.00 | 21 | 1011.4 |
| 20260903180004 | 92 | 226 | 1.0 | 5.0 | 0.00 | 0.00 | 0.00 | 20 | 1011.6 |
| 20260903175728 | 91 | 164 | 1.0 | 3.0 | 0.00 | 0.00 | 0.00 | 22 | 1011.6 |
| 20260903175001 | 91 | 84 | 1.0 | 4.0 | 0.00 | 0.00 | 0.00 | 21 | 1011.6 |
| 20260903174503 | 89 | 39 | 1.0 | 4.0 | 0.00 | 0.00 | 0.00 | 23 | 1011.7 |
| 20260903174002 | 89 | 321 | 0.0 | 2.0 | 0.00 | 0.00 | 0.00 | 27 | 1011.8 |
| 20260903173502 | 89 | 49 | 0.0 | 2.0 | 0.00 | 0.00 | 0.00 | 24 | 1011.8 |
| 20260903173003 | 89 | 233 | 0.0 | 3.0 | 0.00 | 0.00 | 0.00 | 27 | 1011.8 |
| 20260903172501 | 89 | 196 | 0.0 | 3.0 | 0.00 | 0.00 | 0.00 | 24 | 1011.8 |
| 20260903172001 | 88 | 136 | 0.0 | 3.0 | 0.00 | 0.00 | 0.00 | 26 | 1011.7 |
| 20260903171503 | 88 | 214 | 0.0 | 3.0 | 0.00 | 0.00 | 0.00 | 26 | 1011.8 |
| 20260903171001 | 87 | 45 | 0.0 | 2.0 | 0.00 | 0.00 | 0.00 | 24 | 1011.7 |
| 20260903170501 | 87 | 229 | 0.0 | 3.0 | 0.00 | 0.00 | 0.00 | 26 | 1011.8 |
| 20260903170001 | 86 | 79 | 1.0 | 3.0 | 0.00 | 0.00 | 0.00 | 26 | 1011.7 |
| 20260903165504 | 86 | 34 | 1.0 | 3.0 | 0.00 | 0.00 | 0.00 | 28 | 1011.8 |
| 20260903165002 | 86 | 46 | 0.0 | 3.0 | 0.00 | 0.00 | 0.00 | 26 | 1011.8 |
| 20260903164503 | 87 | 143 | 0.0 | 2.0 | 0.00 | 0.00 | 0.00 | 26 | 1011.7 |
| 20260903164002 | 87 | 151 | 0.0 | 2.0 | 0.00 | 0.00 | 0.00 | 26 | 1011.8 |
| 20260903163506 | 86 | 90 | 0.0 | 2.0 | 0.00 | 0.00 | 0.00 | 28 | 1011.8 |
| 20260903163003 | 85 | 123 | 1.0 | 2.0 | 0.00 | 0.00 | 0.00 | 28 | 1011.8 |
| 20260903162722 | 84 | 162 | 1.0 | 3.0 | 0.00 | 0.00 | 0.00 | 27 | 1011.8 |
| 20260903162002 | 83 | 58 | 1.0 | 3.0 | 0.00 | 0.00 | 0.00 | 29 | 1011.8 |
| 20260903161501 | 83 | 331 | 1.0 | 3.0 | 0.00 | 0.00 | 0.00 | 30 | 1011.7 |
| 20260903161001 | 82 | 230 | 1.0 | 3.0 | 0.00 | 0.00 | 0.00 | 31 | 1011.8 |
| 20260903160501 | 82 | 267 | 0.0 | 2.0 | 0.00 | 0.00 | 0.00 | 31 | 1011.9 |
| 20260903160002 | 81 | 293 | 0.0 | 2.0 | 0.00 | 0.00 | 0.00 | 31 | 1011.9 |
| 20260903155502 | 81 | 308 | 0.0 | 3.0 | 0.00 | 0.00 | 0.00 | 33 | 1011.9 |
| 20260903155001 | 80 | 335 | 0.0 | 3.0 | 0.00 | 0.00 | 0.00 | 34 | 1012.0 |
| 20260903154502 | 80 | 340 | 0.0 | 1.0 | 0.00 | 0.00 | 0.00 | 36 | 1011.9 |
| 20260903154229 | 80 | 353 | 0.0 | 1.0 | 0.00 | 0.00 | 0.00 | 36 | 1011.9 |
| 20260903153501 | 79 | 263 | 0.0 | 3.0 | 0.00 | 0.00 | 0.00 | 40 | 1011.9 |
| 20260903153001 | 78 | 336 | 1.0 | 3.0 | 0.00 | 0.00 | 0.00 | 40 | 1011.9 |
| 20260903152725 | 78 | 315 | 1.0 | 2.0 | 0.00 | 0.00 | 0.00 | 40 | 1012.0 |
| 20260903152001 | 78 | 13 | 0.0 | 2.0 | 0.00 | 0.00 | 0.00 | 42 | 1011.9 |
| 20260903151505 | 77 | 346 | 1.0 | 3.0 | 0.00 | 0.00 | 0.00 | 43 | 1011.9 |
| 20260903151001 | 76 | 299 | 1.0 | 3.0 | 0.00 | 0.00 | 0.00 | 44 | 1011.8 |
| 20260903150501 | 77 | 309 | 1.0 | 3.0 | 0.00 | 0.00 | 0.00 | 45 | 1011.8 |
| 20260903150003 | 79 | 345 | 0.0 | 2.0 | 0.00 | 0.00 | 0.00 | 39 | 1011.8 |
| 20260903145503 | 78 | 81 | 0.0 | 2.0 | 0.00 | 0.00 | 0.00 | 35 | 1011.8 |
| 20260903145234 | 77 | 120 | 0.0 | 1.0 | 0.00 | 0.00 | 0.00 | 38 | 1011.8 |
| 20260903144502 | 75 | 135 | 0.0 | 1.0 | 0.00 | 0.00 | 0.00 | 40 | 1011.6 |
| 20260903144002 | 74 | 136 | 0.0 | 1.0 | 0.00 | 0.00 | 0.00 | 41 | 1011.6 |
| 20260903143730 | 74 | 155 | 0.0 | 1.0 | 0.00 | 0.00 | 0.00 | 43 | 1011.6 |
| 20260903143001 | 74 | 200 | 0.0 | 1.0 | 0.00 | 0.00 | 0.00 | 42 | 1011.4 |
| 20260903142504 | 73 | 200 | 0.0 | 1.0 | 0.00 | 0.00 | 0.00 | 43 | 1011.3 |
| 20260903142000 | 73 | 153 | 0.0 | 2.0 | 0.00 | 0.00 | 0.00 | 43 | 1011.3 |
| 20260903141501 | 73 | 179 | 0.0 | 2.0 | 0.00 | 0.00 | 0.00 | 43 | 1011.3 |
| 20260903141001 | 73 | 108 | 0.0 | 1.0 | 0.00 | 0.00 | 0.00 | 43 | 1011.2 |
| 20260903140501 | 73 | 115 | 0.0 | 1.0 | 0.00 | 0.00 | 0.00 | 42 | 1011.1 |
| 20260903140001 | 72 | 128 | 0.0 | 1.0 | 0.00 | 0.00 | 0.00 | 42 | 1011.1 |
| 20260903135502 | 71 | 128 | 0.0 | 2.0 | 0.00 | 0.00 | 0.00 | 43 | 1011.0 |
| 20260903135001 | 70 | 152 | 0.0 | 2.0 | 0.00 | 0.00 | 0.00 | 44 | 1010.9 |
| 20260903134729 | 69 | 167 | 0.0 | 0.0 | 0.00 | 0.00 | 0.00 | 45 | 1010.9 |
| 20260903134001 | 69 | 175 | 0.0 | 2.0 | 0.00 | 0.00 | 0.00 | 46 | 1010.8 |
| 20260903133501 | 69 | 175 | 1.0 | 2.0 | 0.00 | 0.00 | 0.00 | 46 | 1010.8 |
| 20260903133004 | 69 | 134 | 1.0 | 2.0 | 0.00 | 0.00 | 0.00 | 46 | 1010.8 |
| 20260903132501 | 69 | 181 | 0.0 | 2.0 | 0.00 | 0.00 | 0.00 | 47 | 1010.7 |
| 20260903132001 | 68 | 229 | 0.0 | 1.0 | 0.00 | 0.00 | 0.00 | 49 | 1010.7 |
| 20260903131502 | 67 | 215 | 0.0 | 0.0 | 0.00 | 0.00 | 0.00 | 51 | 1010.7 |
| 20260903131001 | 68 | 215 | 0.0 | 0.0 | 0.00 | 0.00 | 0.00 | 49 | 1010.6 |
| 20260903130502 | 68 | 217 | 0.0 | 1.0 | 0.00 | 0.00 | 0.00 | 49 | 1010.6 |
| 20260903130002 | 68 | 217 | 0.0 | 1.0 | 0.00 | 0.00 | 0.00 | 48 | 1010.5 |
| 20260903125504 | 69 | 164 | 0.0 | 1.0 | 0.00 | 0.00 | 0.00 | 48 | 1010.4 |
| 20260903125003 | 69 | 155 | 0.0 | 0.0 | 0.00 | 0.00 | 0.00 | 47 | 1010.4 |
| 20260903124728 | 70 | 156 | 0.0 | 1.0 | 0.00 | 0.00 | 0.00 | 46 | 1010.3 |
| 20260903124002 | 70 | 167 | 0.0 | 1.0 | 0.00 | 0.00 | 0.00 | 45 | 1010.3 |
| 20260903123505 | 70 | 167 | 0.0 | 1.0 | 0.00 | 0.00 | 0.00 | 44 | 1010.4 |
| 20260903123003 | 70 | 167 | 0.0 | 1.0 | 0.00 | 0.00 | 0.00 | 44 | 1010.3 |
| 20260903122503 | 70 | 170 | 0.0 | 1.0 | 0.00 | 0.00 | 0.00 | 45 | 1010.3 |
| 20260903122002 | 71 | 127 | 0.0 | 3.0 | 0.00 | 0.00 | 0.00 | 44 | 1010.2 |
| 20260903121002 | 71 | 184 | 0.0 | 0.0 | 0.00 | 0.00 | 0.00 | 44 | 1010.3 |